Stations météo

réclame
Mon MeteoGroup
Auch, France (7622): Température de l'air & dewpoint: 11.10.2018 05:00:00 - 17.10.2018 05:00:00 (CEST)Auch, France (7622): Température de l'air 5cm: 11.10.2018 05:00:00 - 17.10.2018 05:00:00 (CEST)Auch, France (7622): Température de l'air -20cm & Température de l'air -100cm: 11.10.2018 05:00:00 - 17.10.2018 05:00:00 (CEST)Auch, France (7622): Vitesse du vent & gusts: 11.10.2018 05:00:00 - 17.10.2018 05:00:00 (CEST)Auch, France (7622): Direction du vent: 11.10.2018 05:00:00 - 17.10.2018 05:00:00 (CEST)Auch, France (7622): reduced air pressure: 11.10.2018 05:00:00 - 17.10.2018 05:00:00 (CEST)Auch, France (7622): visibility: 11.10.2018 05:00:00 - 17.10.2018 05:00:00 (CEST)Auch, France (7622): Ensoleillement: 11.10.2018 05:00:00 - 17.10.2018 05:00:00 (CEST)Auch, France (7622): Quantités de précipitations: 11.10.2018 05:00:00 - 17.10.2018 05:00:00 (CEST)
Date & Time tt [°C] td [°C] tt 5cm [°C] tt -20cm [°C] tt -100cm [°C] ff [km/h] ff [knt] fx [km/h] fx [knt] dd ppp [hPa] vv [km] sd [min] rr [mm]
17.10.2018 05:00:00 13,7 13,4 11,7 18,3 19,3 2 1 4 2 SW 1018,3 10 0 0,0
17.10.2018 04:00:00 14,1 13,6 11,9 18,4 19,3 2 1 4 2 S 1018,5 18 0 0,0
17.10.2018 03:00:00 14,7 13,9 12,9 18,5 19,3 2 1 6 3 SE 1018,8 20 0 0,0
17.10.2018 02:00:00 15,2 14,7 14,8 18,5 19,3 3 2 6 3 SSW 1019,1 20 0 0,0
17.10.2018 01:00:00 15,2 14,7 13,4 18,6 19,3 5 3 7 4 S 1019,2 13 0 0,0
17.10.2018 00:00:00 16,2 15,4 15,0 18,6 19,3 0 0 5 3 N 1019,4 16 0 0,0
16.10.2018 23:00:00 16,3 15,7 15,8 18,6 19,4 3 2 10 5 NNW 1019,7 20 0 0,2
16.10.2018 22:00:00 17,0 15,0 16,0 18,6 19,3 6 3 9 5 NNE 1019,3 18 0 0,4
16.10.2018 21:00:00 17,4 14,7 16,4 18,5 19,4 0 0 3 2 N 1018,9 20 0 0,0
16.10.2018 20:00:00 18,0 14,7 16,6 18,4 19,4 3 2 5 3 NNW 1018,6 20 0 0,0
16.10.2018 19:00:00 19,5 14,3 18,8 18,3 19,4 4 2 9 5 WNW 1017,8 20 43 0,0
16.10.2018 18:00:00 21,7 13,1 23,6 18,0 19,3 2 1 11 6 S 1017,2 20 52 0,0
16.10.2018 17:00:00 21,1 13,5 21,6 17,8 19,3 6 3 12 7 NW 1017,1 20 40 0,0
16.10.2018 16:00:00 20,1 14,0 21,2 17,7 19,4 6 3 13 7 S 1017,3 20 20 0,0
16.10.2018 15:00:00 19,9 14,5 19,9 17,4 19,3 5 3 11 6 N 1017,1 20 29 0,0
16.10.2018 14:00:00 17,6 14,3 19,2 17,3 19,4 7 4 11 6 N 1017,5 20 3 0,0
16.10.2018 13:00:00 17,0 14,1 18,5 17,3 19,4 2 1 8 4 W 1017,6 20 4 0,0
16.10.2018 12:00:00 15,2 13,7 16,6 17,2 19,4 4 2 8 5 N 1017,4 20 0 0,0
16.10.2018 11:00:00 13,7 13,2 12,8 17,3 19,4 0 0 9 5 N 1017,2 20 0 0,0
16.10.2018 10:00:00 12,3 12,0 12,2 17,3 19,4 8 4 11 6 S 1016,9 20 6 0,0
16.10.2018 09:00:00 11,6 11,4 11,1 17,4 19,4 8 4 14 7 S 1016,3 20 4 0,0
16.10.2018 08:00:00 11,0 11,0 10,6 17,5 19,4 9 5 11 6 S 1015,7 17 0 0,0
16.10.2018 07:00:00 10,6 10,4 8,9 17,7 19,4 11 6 13 7 S 1014,8 0,5 0 0,0
16.10.2018 06:00:00 10,7 10,5 9,6 17,9 19,4 0 0 8 4 N 1014,4 18 0 0,0
16.10.2018 05:00:00 10,7 10,5 7,4 18,0 19,4 4 2 7 4 S 1014,2 6 0 0,0
16.10.2018 04:00:00 9,6 9,3 7,6 18,1 19,4 5 3 7 4 SSW 1013,8 15 0 0,0
16.10.2018 03:00:00 10,5 10,3 8,0 18,3 19,4 0 0 4 2 N 1013,6 1,5 0 0,0
16.10.2018 02:00:00 11,0 10,7 8,9 18,4 19,4 0 0 4 2 N 1013,6 10 0 0,0
16.10.2018 01:00:00 11,5 11,2 9,4 18,6 19,4 0 0 0 0 N 1013,3 5 0 0,0
16.10.2018 00:00:00 11,2 10,9 8,3 18,7 19,4 0 0 3 2 N 1013,2 16 0 0,0
15.10.2018 23:00:00 11,8 11,5 8,7 18,8 19,4 0 0 3 2 N 1012,6 0,4 0 0,0
15.10.2018 22:00:00 12,7 12,2 9,6 18,9 19,4 0 0 3 2 N 1012,2 16 0 0,0
15.10.2018 21:00:00 14,1 12,8 10,9 18,9 19,4 3 1 4 2 ENE 1011,3 20 0 0,0
15.10.2018 20:00:00 15,4 13,2 14,4 18,9 19,4 0 0 6 3 N 1010,8 20 0 0,0
15.10.2018 19:00:00 15,9 12,8 15,7 18,9 19,4 4 2 11 6 N 1010,2 20 7 0,0
15.10.2018 18:00:00 16,2 12,7 16,3 18,8 19,4 9 5 18 10 N 1009,8 20 0 0,0
15.10.2018 17:00:00 17,0 12,9 18,2 18,6 19,4 9 5 14 7 N 1009,3 20 0 0,0
15.10.2018 16:00:00 17,0 12,9 19,3 18,5 19,4 6 3 13 7 N 1008,8 20 15 0,0
15.10.2018 15:00:00 17,4 12,7 15,1 18,4 19,4 3 2 6 3 NNE 1008,6 20 13 0,4
15.10.2018 14:00:00 15,9 12,5 15,5 18,3 19,4 2 1 9 5 S 1009,0 20 8 0,0
15.10.2018 13:00:00 15,5 12,6 15,7 18,3 19,4 2 1 14 8 WNW 1008,9 20 0 0,0
15.10.2018 12:00:00 14,2 12,9 15,0 18,3 19,4 8 4 14 8 N 1008,9 15 0 0,0
15.10.2018 11:00:00 13,8 13,2 13,7 18,3 19,4 5 3 16 9 NW 1008,7 20 0 0,0
15.10.2018 10:00:00 13,4 12,9 13,3 18,4 19,4 9 5 16 9 NW 1008,6 2,4 0 0,2
15.10.2018 09:00:00 13,4 13,1 13,1 18,5 19,4 6 4 14 8 WSW 1007,4 2,7 0 0,0
15.10.2018 08:00:00 13,3 12,8 12,8 18,6 19,4 7 4 16 9 W 1007,0 2,9 0 0,6
15.10.2018 07:00:00 13,1 12,6 12,8 18,8 19,3 8 4 15 8 WSW 1006,8 8 0 1,6
15.10.2018 06:00:00 13,1 12,5 12,8 18,9 19,4 7 4 14 8 WSW 1007,2 15 0 2,6
15.10.2018 05:00:00 13,4 12,9 13,1 19,1 19,4 6 3 12 6 SW 1007,5 14 0 1,6
15.10.2018 04:00:00 13,4 12,9 13,1 19,2 19,3 5 3 12 6 SW 1007,9 10 0 5,1
15.10.2018 03:00:00 13,5 12,9 13,2 19,3 19,4 4 2 9 5 W 1008,6 12 0 1,8
15.10.2018 02:00:00 13,6 13,1 13,4 19,5 19,4 3 2 7 4 SSW 1009,1 12 0 1,8
15.10.2018 01:00:00 13,7 13,2 13,5 19,6 19,4 5 3 10 5 S 1009,8 11 0 2,0
15.10.2018 00:00:00 13,8 13,3 13,4 19,8 19,3 5 3 8 5 S 1010,1 12 0 1,8
14.10.2018 23:00:00 13,8 13,2 13,4 19,9 19,4 6 3 16 9 SSW 1010,2 8 0 3,0
14.10.2018 22:00:00 14,2 13,4 13,6 20,1 19,3 8 4 11 6 S 1010,0 9 0 2,5
14.10.2018 21:00:00 14,2 13,1 13,6 20,2 19,4 4 2 18 10 W 1009,2 20 0 2,2
14.10.2018 20:00:00 14,7 13,2 13,8 20,2 19,3 8 4 27 15 WSW 1009,2 10 0 1,4
14.10.2018 19:00:00 15,8 13,1 15,7 20,2 19,3 10 5 29 16 W 1008,0 20 0 0,0
14.10.2018 18:00:00 16,8 13,5 16,6 20,2 19,3 10 5 33 18 W 1006,9 20 0 0,0
14.10.2018 17:00:00 18,2 13,1 18,0 20,1 19,3 16 9 49 27 WSW 1006,1 20 0 0,0
14.10.2018 16:00:00 20,4 15,0 20,7 19,9 19,3 25 14 51 28 W 1004,3 20 0 0,0
14.10.2018 15:00:00 26,5 15,2 27,3 19,7 19,3 18 10 41 22 ESE 1001,9 20 32 0,0
14.10.2018 14:00:00 26,6 15,3 27,8 19,5 19,3 20 11 41 22 ESE 1002,4 20 50 0,0
14.10.2018 13:00:00 26,0 16,0 27,1 19,5 19,3 17 9 42 23 SE 1003,5 20 60 0,0
14.10.2018 12:00:00 24,3 15,8 24,2 19,4 19,3 16 8 39 21 SE 1004,2 20 60 0,0
14.10.2018 11:00:00 22,2 16,2 23,0 19,5 19,3 20 11 41 22 SE 1004,4 20 48 0,0
14.10.2018 10:00:00 20,6 16,0 21,0 19,6 19,3 19 10 39 21 SE 1004,5 20 60 0,0
14.10.2018 09:00:00 18,9 16,3 17,1 19,7 19,3 3 2 15 8 WSW 1005,1 20 22 0,0
14.10.2018 08:00:00 18,3 16,1 16,5 19,8 19,3 3 2 15 8 S 1005,1 20 0 0,0
14.10.2018 07:00:00 18,7 16,5 16,6 19,9 19,3 4 2 17 9 SE 1005,7 20 0 0,0
14.10.2018 06:00:00 18,5 16,5 16,5 20,0 19,3 4 2 16 9 S 1006,1 20 0 0,0
14.10.2018 05:00:00 18,8 16,8 17,0 20,1 19,3 5 3 18 10 SSE 1006,5 20 0 0,0
14.10.2018 04:00:00 18,7 16,8 16,3 20,2 19,3 4 2 14 7 E 1007,1 20 0 0,0
14.10.2018 03:00:00 19,1 16,9 18,1 20,3 19,3 3 2 14 8 E 1008,0 20 0 0,0
14.10.2018 02:00:00 19,5 17,1 18,9 20,4 19,3 4 2 14 8 ESE 1008,7 20 0 0,0
14.10.2018 01:00:00 19,7 17,1 18,9 20,5 19,3 4 2 18 10 SSE 1009,8 20 0 0,0
14.10.2018 00:00:00 19,8 17,4 18,5 20,6 19,3 8 5 16 8 ESE 1010,6 20 0 0,0
13.10.2018 23:00:00 19,3 17,1 18,2 20,6 19,3 2 1 10 6 NNE 1011,4 20 0 0,0
13.10.2018 22:00:00 19,8 17,2 18,6 20,6 19,3 2 1 11 6 SE 1011,9 20 0 0,0
13.10.2018 21:00:00 20,4 17,4 19,9 20,7 19,3 3 1 15 8 SE 1012,3 20 0 0,0
13.10.2018 20:00:00 20,5 17,3 19,9 20,6 19,3 8 4 25 13 E 1012,6 20 0 0,0
13.10.2018 19:00:00 21,9 17,3 21,4 20,5 19,3 11 6 32 18 ESE 1012,7 20 29 0,0
13.10.2018 18:00:00 24,0 17,7 25,4 20,4 19,3 15 8 35 19 E 1012,4 20 54 0,0
13.10.2018 17:00:00 25,2 16,9 26,8 20,1 19,3 15 8 31 17 ESE 1012,9 20 51 0,0
13.10.2018 16:00:00 26,3 16,5 29,5 19,9 19,3 16 8 31 17 E 1013,5 19 60 0,0
13.10.2018 15:00:00 26,1 16,9 28,9 19,6 19,3 15 8 29 15 E 1014,3 20 60 0,0
13.10.2018 14:00:00 25,6 17,5 28,4 19,5 19,3 15 8 34 18 E 1015,0 20 60 0,0
13.10.2018 13:00:00 24,8 17,5 26,8 19,3 19,3 16 8 34 18 ESE 1016,1 20 60 0,0
13.10.2018 12:00:00 23,5 17,5 23,6 19,2 19,3 19 10 32 17 E 1016,7 20 44 0,0
13.10.2018 11:00:00 21,9 17,5 22,4 19,1 19,2 15 8 28 15 ESE 1017,3 20 11 0,0
13.10.2018 10:00:00 21,2 17,6 20,6 19,2 19,3 10 5 23 12 ESE 1017,4 20 22 0,0
13.10.2018 09:00:00 20,5 17,5 19,6 19,2 19,3 7 4 20 11 E 1017,4 20 2 0,0
13.10.2018 08:00:00 20,2 17,4 19,7 19,3 19,3 7 4 16 9 E 1017,4 20 0 0,0
13.10.2018 07:00:00 20,2 17,4 19,7 19,3 19,3 5 3 16 8 ESE 1017,5 20 0 0,0
13.10.2018 06:00:00 20,0 17,6 18,4 19,4 19,3 5 3 14 8 ESE 1017,9 20 0 0,0
13.10.2018 05:00:00 19,0 17,7 16,9 19,5 19,3 0 0 8 5 N 1018,3 20 0 0,0
13.10.2018 04:00:00 18,5 17,5 14,8 19,5 19,3 3 2 6 3 E 1018,7 20 0 0,0
13.10.2018 03:00:00 19,4 17,4 17,5 19,6 19,3 2 1 12 6 SE 1019,5 20 0 0,0
13.10.2018 02:00:00 19,5 17,6 18,7 19,7 19,3 3 2 22 12 E 1019,5 20 0 0,0
13.10.2018 01:00:00 19,9 17,9 19,2 19,7 19,3 7 4 20 11 SE 1019,8 20 0 0,0
13.10.2018 00:00:00 19,9 17,7 19,1 19,8 19,3 3 2 13 7 ESE 1020,3 20 0 0,0
12.10.2018 23:00:00 19,8 17,6 18,3 19,8 19,3 2 1 10 5 SW 1020,7 20 0 0,0
12.10.2018 22:00:00 19,8 17,8 17,5 19,8 19,3 4 2 13 7 NW 1020,6 20 0 0,0
12.10.2018 21:00:00 20,7 17,5 19,5 19,8 19,3 6 3 16 9 ESE 1020,2 20 0 0,0
12.10.2018 20:00:00 21,9 17,7 20,5 19,8 19,3 4 2 22 12 E 1019,9 20 0 0,0
12.10.2018 19:00:00 23,5 17,7 22,9 19,6 19,3 11 6 20 11 E 1019,1 20 7 0,0
12.10.2018 18:00:00 25,1 17,3 24,8 19,4 19,3 9 5 23 12 ESE 1018,7 20 23 0,0
12.10.2018 17:00:00 26,8 17,6 29,3 19,1 19,3 13 7 28 15 E 1018,4 20 60 0,0
12.10.2018 16:00:00 27,1 17,0 29,1 18,9 19,3 14 8 27 15 E 1018,0 20 54 0,0
12.10.2018 15:00:00 27,1 16,4 29,9 18,6 19,3 16 8 31 17 SE 1018,2 20 60 0,0
12.10.2018 14:00:00 26,6 16,2 29,0 18,4 19,3 14 8 37 20 ESE 1018,1 20 60 0,0
12.10.2018 13:00:00 25,3 16,2 27,3 18,3 19,3 16 8 34 18 SSE 1018,7 20 60 0,0
12.10.2018 12:00:00 23,6 16,1 24,3 18,2 19,3 13 7 29 16 SSE 1018,8 20 21 0,0
12.10.2018 11:00:00 22,3 16,1 21,5 18,3 19,3 16 9 29 15 SE 1018,7 20 38 0,0
12.10.2018 10:00:00 20,7 16,3 17,9 18,3 19,3 7 4 16 9 SE 1018,4 20 43 0,0
12.10.2018 09:00:00 16,6 16,0 12,4 18,4 19,3 2 1 9 5 NNE 1017,9 19 31 0,0
12.10.2018 08:00:00 15,9 14,9 13,0 18,5 19,3 0 0 4 2 N 1017,1 12 0 0,0
12.10.2018 07:00:00 17,3 15,1 13,7 18,6 19,3 4 2 11 6 WNW 1016,8 20 0 0,0
12.10.2018 06:00:00 16,4 15,6 13,0 18,7 19,3 0 0 5 3 N 1016,2 19 0 0,0
12.10.2018 05:00:00 17,1 15,6 14,2 18,8 19,3 2 1 11 6 SE 1015,8 20 0 0,0
12.10.2018 04:00:00 17,6 15,6 14,4 18,9 19,3 3 1 11 6 S 1015,8 20 0 0,0
12.10.2018 03:00:00 19,0 16,4 17,1 18,9 19,3 8 4 13 7 SSE 1016,2 20 0 0,0
12.10.2018 02:00:00 19,5 16,5 18,7 19,0 19,3 6 3 16 9 SSE 1015,5 20 0 0,0
12.10.2018 01:00:00 19,5 16,7 18,1 19,0 19,3 6 3 16 9 SSE 1015,1 20 0 0,0
12.10.2018 00:00:00 19,2 16,1 17,3 19,0 19,3 6 3 14 7 SSE 1015,0 20 0 0,0
11.10.2018 23:00:00 19,2 15,1 17,8 19,1 19,3 5 3 12 6 SSE 1014,6 20 0 0,0
11.10.2018 22:00:00 20,0 15,2 18,8 19,1 19,3 4 2 17 9 SSE 1014,0 20 0 0,0
11.10.2018 21:00:00 20,3 15,1 19,0 19,0 19,3 3 1 17 9 ESE 1013,2 20 0 0,0
11.10.2018 20:00:00 21,2 15,7 19,8 19,0 19,3 3 2 10 5 S 1012,8 20 0 0,0
11.10.2018 19:00:00 22,3 15,9 20,5 18,9 19,3 2 1 17 9 E 1011,9 20 13 0,0
11.10.2018 18:00:00 23,7 16,2 23,3 18,7 19,3 4 2 27 15 SSE 1011,2 20 32 0,0
11.10.2018 17:00:00 23,3 15,9 23,0 18,5 19,3 11 6 21 11 ESE 1010,5 20 0 0,0
11.10.2018 16:00:00 24,1 15,3 24,2 18,3 19,3 9 5 35 19 SE 1010,2 20 7 0,0
11.10.2018 15:00:00 25,1 15,4 27,6 18,0 19,3 21 11 38 21 SE 1009,6 20 60 0,0
11.10.2018 14:00:00 24,6 15,0 26,6 17,8 19,3 16 8 29 16 SE 1010,0 20 58 0,0
11.10.2018 13:00:00 23,4 15,4 22,9 17,7 19,3 13 7 24 13 SE 1010,5 20 35 0,0
11.10.2018 12:00:00 21,6 15,2 21,8 17,7 19,3 9 5 32 18 SE 1010,6 20 22 0,0
11.10.2018 11:00:00 20,2 15,0 22,3 17,7 19,3 14 7 24 13 SE 1010,2 20 60 0,0
11.10.2018 10:00:00 18,4 15,1 14,5 17,8 19,3 8 4 21 11 SSE 1009,8 20 60 0,0
11.10.2018 09:00:00 13,4 12,9 10,7 17,9 19,3 3 2 6 4 W 1009,6 16 5 0,0
11.10.2018 08:00:00 13,8 13,0 10,9 18,1 19,3 2 1 11 6 SSW 1009,1 10 0 0,2
11.10.2018 07:00:00 14,9 14,1 12,3 18,2 19,3 3 2 13 7 SSE 1008,8 20 0 0,0
11.10.2018 06:00:00 15,0 14,7 10,8 18,3 19,3 6 4 11 6 S 1008,5 19 0 0,0
11.10.2018 05:00:00 14,9 14,3 12,4 18,5 19,4 6 3 16 9 S 1008,5 14 0 0,0

tt = Température de l'air
td = dewpoint
tt 5cm = Température de l'air 5cm
tt -20cm = Température de l'air -20cm
tt -100cm = Température de l'air -100cm
ff = Vitesse du vent
fx = gusts
dd = Direction du vent
ppp = reduced air pressure
vv = visibility
sd = Ensoleillement
rr = Quantités de précipitations

stations d'obs. à proximité